Location: Ravensburg
(47.7866°N, 9.6124°E)
Time: 19:40:39
(UTC+01:00)

ISS - Pass Details

Date: 16 November 2025
Orbit: 416 x 421 km, 51.6° (Epoch: 05 December)

Event Time Altitude Azimuth Distance (km) Brightness Sun altitude
Rises 18:55:39 0° 252° (WSW) 2,363 1.4 -22.1°
Reaches altitude 10° 18:57:45 10° 254° (WSW) 1,499 0.1 -22.4°
Enters shadow 19:00:25 51° 273° (W) 533 -3.0 -22.9°
